| time (UTC) | temp C | wind direction | speed KPH | gust KPH | rain 1hr cm | rain 24hr cm | rain mn cm | humidity % | barometer mb |
| 20260508170054 | 15 | 146 | 4.8 | 14.5 | 0.00 | 0.00 | 0.00 | 49 | 1022.0 |
| 20260508164551 | 15 | 172 | 4.8 | 16.1 | 0.00 | 0.00 | 0.00 | 50 | 1022.1 |
| 20260508163053 | 15 | 162 | 11.3 | 20.9 | 0.00 | 0.00 | 0.00 | 50 | 1022.2 |
| 20260508161550 | 15 | 157 | 6.4 | 17.7 | 0.00 | 0.00 | 0.00 | 46 | 1022.1 |
| 20260508160050 | 15 | 135 | 3.2 | 16.1 | 0.00 | 0.00 | 0.00 | 43 | 1022.1 |
| 20260508154549 | 16 | 170 | 9.7 | 19.3 | 0.00 | 0.00 | 0.00 | 47 | 1022.0 |
| 20260508153053 | 16 | 168 | 8.0 | 20.9 | 0.00 | 0.00 | 0.00 | 50 | 1022.0 |
| 20260508151547 | 16 | 190 | 12.9 | 22.5 | 0.00 | 0.00 | 0.00 | 53 | 1022.0 |
| 20260508150047 | 16 | 163 | 8.0 | 19.3 | 0.00 | 0.00 | 0.00 | 54 | 1022.0 |
| 20260508144546 | 16 | 193 | 16.1 | 22.5 | 0.00 | 0.00 | 0.00 | 52 | 1022.1 |
| 20260508143044 | 16 | 138 | 3.2 | 25.7 | 0.00 | 0.00 | 0.00 | 53 | 1022.2 |
| 20260508141609 | 16 | 165 | 9.7 | 17.7 | 0.00 | 0.00 | 0.00 | 54 | 1022.2 |
| 20260508140042 | 16 | 176 | 11.3 | 20.9 | 0.00 | 0.00 | 0.00 | 52 | 1022.2 |
| 20260508134553 | 16 | 184 | 12.9 | 25.7 | 0.00 | 0.00 | 0.00 | 49 | 1022.2 |
| 20260508133043 | 16 | 178 | 12.9 | 20.9 | 0.00 | 0.00 | 0.00 | 51 | 1022.3 |
| 20260508131540 | 16 | 208 | 11.3 | 22.5 | 0.00 | 0.00 | 0.00 | 47 | 1022.2 |
| 20260508130039 | 16 | 173 | 11.3 | 22.5 | 0.00 | 0.00 | 0.00 | 50 | 1022.4 |
| 20260508124544 | 16 | 182 | 12.9 | 20.9 | 0.00 | 0.00 | 0.00 | 48 | 1022.4 |
| 20260508123046 | 16 | 217 | 8.0 | 20.9 | 0.00 | 0.00 | 0.00 | 49 | 1022.5 |
| 20260508121537 | 16 | 178 | 8.0 | 24.1 | 0.00 | 0.00 | 0.00 | 47 | 1022.4 |
| 20260508120036 | 16 | 202 | 11.3 | 20.9 | 0.00 | 0.00 | 0.00 | 51 | 1022.5 |
| 20260508114537 | 16 | 208 | 9.7 | 19.3 | 0.00 | 0.00 | 0.00 | 50 | 1022.4 |
| 20260508113048 | 16 | 176 | 8.0 | 19.3 | 0.00 | 0.00 | 0.00 | 48 | 1022.4 |
| 20260508111534 | 16 | 200 | 9.7 | 22.5 | 0.00 | 0.00 | 0.00 | 44 | 1022.4 |
| 20260508110032 | 15 | 200 | 9.7 | 17.7 | 0.00 | 0.00 | 0.00 | 44 | 1022.4 |
| 20260508104532 | 16 | 148 | 4.8 | 16.1 | 0.00 | 0.00 | 0.00 | 46 | 1022.4 |
| 20260508103034 | 15 | 202 | 9.7 | 19.3 | 0.00 | 0.00 | 0.00 | 45 | 1022.5 |
| 20260508101532 | 15 | 200 | 9.7 | 17.7 | 0.00 | 0.00 | 0.00 | 45 | 1022.4 |
| 20260508100027 | 15 | 161 | 8.0 | 24.1 | 0.00 | 0.00 | 0.00 | 47 | 1022.2 |
| 20260508094524 | 15 | 211 | 11.3 | 19.3 | 0.00 | 0.00 | 0.00 | 47 | 1022.2 |
| 20260508093023 | 15 | 135 | 6.4 | 12.9 | 0.00 | 0.00 | 0.00 | 52 | 1022.3 |
| 20260508091533 | 15 | 135 | 3.2 | 14.5 | 0.00 | 0.00 | 0.00 | 51 | 1022.2 |
| 20260508090029 | 15 | 122 | 1.6 | 14.5 | 0.00 | 0.00 | 0.00 | 47 | 1022.2 |
| 20260508084514 | 15 | 59 | 3.2 | 9.7 | 0.00 | 0.00 | 0.00 | 45 | 1022.2 |
| 20260508083010 | 14 | 121 | 1.6 | 14.5 | 0.00 | 0.00 | 0.00 | 50 | 1022.2 |
| 20260508081509 | 14 | 130 | 3.2 | 11.3 | 0.00 | 0.00 | 0.00 | 59 | 1022.2 |
| 20260508080004 | 14 | 130 | 6.4 | 14.5 | 0.00 | 0.00 | 0.00 | 63 | 1022.2 |
| 20260508074603 | 13 | 123 | 4.8 | 12.9 | 0.00 | 0.00 | 0.00 | 66 | 1022.1 |
| 20260508073056 | 13 | 128 | 8.0 | 16.1 | 0.00 | 0.00 | 0.00 | 67 | 1022.1 |
| 20260508071553 | 13 | 134 | 3.2 | 12.9 | 0.00 | 0.00 | 0.00 | 75 | 1022.0 |
| 20260508070052 | 12 | 137 | 4.8 | 12.9 | 0.00 | 0.00 | 0.00 | 79 | 1021.9 |
| 20260508064546 | 12 | 120 | 1.6 | 11.3 | 0.00 | 0.00 | 0.00 | 81 | 1021.7 |
| 20260508063042 | 12 | 167 | 3.2 | 9.7 | 0.00 | 0.00 | 0.00 | 84 | 1021.6 |
| 20260508061539 | 11 | 130 | 6.4 | 11.3 | 0.00 | 0.00 | 0.00 | 86 | 1021.5 |
| 20260508060036 | 11 | 141 | 1.6 | 8.0 | 0.00 | 0.00 | 0.00 | 87 | 1021.4 |
| 20260508054530 | 11 | 139 | 0.0 | 3.2 | 0.00 | 0.00 | 0.00 | 89 | 1021.2 |
| 20260508053027 | 10 | 134 | 0.0 | 4.8 | 0.00 | 0.00 | 0.00 | 91 | 1021.2 |
| 20260508051525 | 9 | 134 | 0.0 | 1.6 | 0.00 | 0.00 | 0.00 | 92 | 1021.0 |
| 20260508050019 | 8 | 134 | 0.0 | 3.2 | 0.00 | 0.00 | 0.00 | 93 | 1021.1 |
| 20260508044512 | 7 | 130 | 0.0 | 4.8 | 0.00 | 0.00 | 0.00 | 93 | 1021.0 |
| 20260508043009 | 7 | 123 | 1.6 | 8.0 | 0.00 | 0.00 | 0.00 | 93 | 1020.8 |
| 20260508041505 | 6 | 142 | 0.0 | 4.8 | 0.00 | 0.00 | 0.00 | 92 | 1020.8 |
| 20260508040009 | 6 | 130 | 1.6 | 8.0 | 0.00 | 0.00 | 0.00 | 92 | 1020.7 |
| 20260508034600 | 6 | 132 | 4.8 | 8.0 | 0.00 | 0.00 | 0.00 | 92 | 1020.7 |
| 20260508033058 | 6 | 129 | 3.2 | 8.0 | 0.00 | 0.00 | 0.00 | 92 | 1020.5 |
| 20260508031556 | 6 | 126 | 3.2 | 6.4 | 0.00 | 0.00 | 0.00 | 91 | 1020.5 |
| 20260508030055 | 6 | 125 | 3.2 | 8.0 | 0.00 | 0.00 | 0.00 | 91 | 1020.5 |
| 20260508024558 | 6 | 128 | 3.2 | 11.3 | 0.00 | 0.00 | 0.00 | 91 | 1020.4 |
| 20260508023052 | 6 | 126 | 3.2 | 8.0 | 0.00 | 0.00 | 0.00 | 90 | 1020.5 |
| 20260508021553 | 6 | 129 | 3.2 | 6.4 | 0.00 | 0.00 | 0.00 | 90 | 1020.4 |
| 20260508020050 | 6 | 121 | 1.6 | 4.8 | 0.00 | 0.00 | 0.00 | 89 | 1020.4 |
| 20260508014547 | 6 | 111 | 1.6 | 4.8 | 0.00 | 0.00 | 0.00 | 89 | 1020.3 |
| 20260508013044 | 7 | 109 | 0.0 | 6.4 | 0.00 | 0.00 | 0.00 | 87 | 1020.1 |
| 20260508011541 | 7 | 118 | 0.0 | 1.6 | 0.00 | 0.00 | 0.00 | 86 | 1020.0 |
| 20260508010038 | 7 | 118 | 0.0 | 4.8 | 0.00 | 0.00 | 0.00 | 84 | 1020.0 |
| 20260508004540 | 8 | 163 | 0.0 | 4.8 | 0.00 | 0.00 | 0.00 | 83 | 1019.9 |
| 20260508003038 | 8 | 155 | 1.6 | 4.8 | 0.00 | 0.00 | 0.00 | 85 | 1019.9 |
| 20260508001534 | 7 | 139 | 0.0 | 4.8 | 0.00 | 0.00 | 0.00 | 84 | 1019.9 |
| 20260508000029 | 8 | 141 | 0.0 | 3.2 | 0.00 | 0.00 | 0.00 | 83 | 1019.7 |
| 20260507234528 | 9 | 207 | 0.0 | 6.4 | 0.00 | 0.00 | 0.00 | 82 | 1019.8 |
| 20260507233035 | 9 | 209 | 6.4 | 8.0 | 0.00 | 0.00 | 0.00 | 82 | 1019.7 |
| 20260507231524 | 9 | 201 | 3.2 | 6.4 | 0.00 | 0.00 | 0.00 | 81 | 1019.6 |
| 20260507230020 | 8 | 150 | 1.6 | 4.8 | 0.00 | 0.00 | 0.00 | 82 | 1019.6 |
| 20260507224519 | 8 | 146 | 0.0 | 3.2 | 0.00 | 0.00 | 0.00 | 83 | 1019.6 |
| 20260507223018 | 8 | 130 | 0.0 | 3.2 | 0.00 | 0.00 | 0.00 | 83 | 1019.5 |
| 20260507221518 | 8 | 128 | 0.0 | 3.2 | 0.00 | 0.00 | 0.00 | 84 | 1019.5 |
| 20260507220014 | 8 | 131 | 0.0 | 4.8 | 0.00 | 0.00 | 0.00 | 83 | 1019.4 |
| 20260507214513 | 8 | 129 | 1.6 | 6.4 | 0.00 | 0.00 | 0.00 | 84 | 1019.3 |
| 20260507213012 | 8 | 144 | 0.0 | 3.2 | 0.00 | 0.00 | 0.00 | 84 | 1019.3 |
| 20260507211512 | 8 | 148 | 1.6 | 4.8 | 0.00 | 0.00 | 0.00 | 84 | 1019.2 |
| 20260507210030 | 8 | 140 | 0.0 | 3.2 | 0.00 | 0.00 | 0.00 | 83 | 1019.1 |
| 20260507204508 | 8 | 136 | 0.0 | 3.2 | 0.00 | 0.00 | 0.00 | 83 | 1018.9 |
| 20260507203009 | 8 | 137 | 0.0 | 4.8 | 0.00 | 0.00 | 0.00 | 84 | 1018.7 |
| 20260507201509 | 8 | 138 | 0.0 | 4.8 | 0.00 | 0.00 | 0.00 | 83 | 1018.7 |
| 20260507200008 | 9 | 132 | 0.0 | 4.8 | 0.00 | 0.00 | 0.00 | 83 | 1018.7 |
| 20260507194505 | 9 | 119 | 0.0 | 3.2 | 0.00 | 0.00 | 0.00 | 82 | 1018.7 |
| 20260507193006 | 9 | 135 | 0.0 | 8.0 | 0.00 | 0.00 | 0.00 | 81 | 1018.7 |
| 20260507191502 | 9 | 126 | 1.6 | 6.4 | 0.00 | 0.00 | 0.00 | 80 | 1018.3 |
| 20260507190003 | 10 | 134 | 1.6 | 6.4 | 0.00 | 0.00 | 0.00 | 79 | 1018.2 |
| 20260507184606 | 10 | 129 | 0.0 | 6.4 | 0.00 | 0.00 | 0.00 | 77 | 1017.9 |
| 20260507183056 | 10 | 130 | 0.0 | 3.2 | 0.00 | 0.00 | 0.00 | 75 | 1017.7 |
| 20260507181555 | 11 | 133 | 1.6 | 4.8 | 0.00 | 0.00 | 0.00 | 72 | 1017.6 |
| 20260507180057 | 11 | 126 | 0.0 | 4.8 | 0.00 | 0.00 | 0.00 | 72 | 1017.7 |
| 20260507174552 | 12 | 144 | 0.0 | 6.4 | 0.00 | 0.00 | 0.00 | 69 | 1017.6 |
| 20260507173050 | 12 | 122 | 1.6 | 9.7 | 0.00 | 0.00 | 0.00 | 72 | 1017.6 |
| 20260507171550 | 11 | 129 | 3.2 | 8.0 | 0.00 | 0.00 | 0.00 | 72 | 1017.3 |